CW9861 Weather Reports


Display with metric or nautical units.
time (UTC)temp
F
wind
direction
speed
MPH
gust
MPH
rain 1hr
in
rain 24hr
in
rain mn
in
humidity
%
barometer
mb
20260510152959 56 291 4.0 11.0 0.00 0.00 0.00 44 1016.8
20260510152458 56 205 3.0 11.0 0.00 0.00 0.00 41 1016.8
20260510151958 55 285 2.0 10.0 0.00 0.00 0.00 43 1016.8
20260510151458 55 325 3.0 10.0 0.00 0.00 0.00 43 1016.8
20260510150958 55 338 4.0 10.0 0.00 0.00 0.00 43 1016.7
20260510150458 55 321 3.0 10.0 0.00 0.00 0.00 42 1016.8
20260510145958 55 225 2.0 10.0 0.00 0.00 0.00 44 1016.7
20260510145458 54 303 3.0 7.0 0.00 0.00 0.00 46 1016.7
20260510144958 53 107 2.0 7.0 0.00 0.00 0.00 40 1016.7
20260510144458 54 299 2.0 6.0 0.00 0.00 0.00 45 1016.7
20260510143958 53 294 3.0 8.0 0.00 0.00 0.00 42 1016.6
20260510143458 53 293 4.0 8.0 0.00 0.00 0.00 43 1016.6
20260510142958 53 287 2.0 5.0 0.00 0.00 0.00 45 1016.6
20260510142458 53 326 1.0 6.0 0.00 0.00 0.00 47 1016.5
20260510141958 53 220 3.0 11.0 0.00 0.00 0.00 42 1016.5
20260510141458 53 284 1.0 7.0 0.00 0.00 0.00 45 1016.5
20260510140958 52 284 3.0 7.0 0.00 0.00 0.00 46 1016.4
20260510140458 51 115 1.0 5.0 0.00 0.00 0.00 47 1016.4
20260510140001 51 305 1.0 9.0 0.00 0.00 0.00 45 1016.4
20260510132000 49 230 2.0 5.0 0.00 0.00 0.00 54 1016.3
20260510131459 49 237 3.0 6.0 0.00 0.00 0.00 52 1016.3
20260510131000 49 223 4.0 6.0 0.00 0.00 0.00 51 1016.3
20260510130459 49 308 2.0 3.0 0.00 0.00 0.00 54 1016.3
20260510130001 48 251 1.0 4.0 0.00 0.00 0.00 54 1016.1
20260510125459 47 225 2.0 4.0 0.00 0.00 0.00 60 1016.1
20260510124959 47 320 2.0 3.0 0.00 0.00 0.00 63 1016.0
20260510124459 45 222 1.0 5.0 0.00 0.00 0.00 71 1015.9
20260510123959 41 324 2.0 5.0 0.00 0.00 0.00 81 1015.7
20260510123458 40 303 0.0 3.0 0.00 0.00 0.00 83 1015.6
20260510122958 39 226 2.0 3.0 0.00 0.00 0.00 86 1015.6
20260510122459 38 251 1.0 3.0 0.00 0.00 0.00 87 1015.6
20260510121959 37 242 0.0 3.0 0.00 0.00 0.00 88 1015.6
20260510121458 36 242 0.0 3.0 0.00 0.00 0.00 88 1015.5
20260510120959 35 254 0.0 3.0 0.00 0.00 0.00 88 1015.5
20260510120458 34 236 1.0 3.0 0.00 0.00 0.00 88 1015.4
20260510115958 34 178 0.0 2.0 0.00 0.00 0.00 88 1015.4
20260510115458 33 178 0.0 2.0 0.00 0.00 0.00 88 1015.2
20260510114957 32 178 0.0 1.0 0.00 0.00 0.00 87 1015.0
20260510114458 32 178 0.0 1.0 0.00 0.00 0.00 87 1015.0
20260510113957 31 178 0.0 0.0 0.00 0.00 0.00 86 1014.9
20260510113458 31 178 0.0 0.0 0.00 0.00 0.00 86 1015.0
20260510112958 31 178 0.0 0.0 0.00 0.00 0.00 85 1014.9
20260510112457 31 178 0.0 0.0 0.00 0.00 0.00 85 1014.8
20260510111957 31 178 0.0 0.0 0.00 0.00 0.00 84 1014.8
20260510111458 31 178 0.0 0.0 0.00 0.00 0.00 84 1014.8
20260510110957 31 178 0.0 0.0 0.00 0.00 0.00 84 1014.7
20260510110458 31 178 0.0 0.0 0.00 0.00 0.00 84 1014.7
20260510105958 31 178 0.0 1.0 0.00 0.00 0.00 83 1014.6
20260510105458 31 178 0.0 1.0 0.00 0.00 0.00 83 1014.7
20260510104957 31 176 0.0 1.0 0.00 0.00 0.00 82 1014.5
20260510104458 31 176 0.0 1.0 0.00 0.00 0.00 82 1014.4
20260510103958 31 176 0.0 0.0 0.00 0.00 0.00 81 1014.3
20260510103458 31 176 0.0 1.0 0.00 0.00 0.00 81 1014.2
20260510102958 31 176 0.0 1.0 0.00 0.00 0.00 80 1014.2
20260510102457 31 26 0.0 1.0 0.00 0.00 0.00 80 1013.9
20260510101958 31 26 0.0 1.0 0.00 0.00 0.00 79 1013.8
20260510101457 31 26 0.0 1.0 0.00 0.00 0.00 79 1013.6
20260510100958 32 26 0.0 1.0 0.00 0.00 0.00 79 1013.6
20260510100457 32 54 0.0 1.0 0.00 0.00 0.00 79 1013.6
20260510100000 32 54 0.0 1.0 0.00 0.00 0.00 78 1013.5
20260510095500 32 54 0.0 1.0 0.00 0.00 0.00 78 1013.5
20260510094958 32 54 0.0 0.0 0.00 0.00 0.00 77 1013.5
20260510094459 32 54 0.0 2.0 0.00 0.00 0.00 77 1013.4
20260510094000 33 54 1.0 2.0 0.00 0.00 0.00 77 1013.4
20260510093500 33 77 0.0 0.0 0.00 0.00 0.00 75 1013.3
20260510092959 33 77 0.0 0.0 0.00 0.00 0.00 75 1013.3
20260510092459 33 77 0.0 0.0 0.00 0.00 0.00 74 1013.3
20260510091959 33 77 0.0 0.0 0.00 0.00 0.00 73 1013.2
20260510091459 34 77 0.0 0.0 0.00 0.00 0.00 73 1013.2
20260510091000 34 77 0.0 0.0 0.00 0.00 0.00 73 1013.2
20260510090459 34 77 0.0 0.0 0.00 0.00 0.00 73 1013.2
20260510090001 34 77 0.0 0.0 0.00 0.00 0.00 73 1013.1
20260510085458 35 77 0.0 0.0 0.00 0.00 0.00 73 1013.0
20260510084959 35 77 0.0 0.0 0.00 0.00 0.00 72 1012.8
20260510084459 35 77 0.0 0.0 0.00 0.00 0.00 73 1012.8
20260510084000 35 77 0.0 0.0 0.00 0.00 0.00 72 1012.7
20260510083500 36 77 0.0 0.0 0.00 0.00 0.00 72 1012.5
20260510083000 36 77 0.0 0.0 0.00 0.00 0.00 72 1012.5
20260510074959 38 77 0.0 0.0 0.00 0.00 0.00 66 1012.0
20260510074459 38 77 0.0 0.0 0.00 0.00 0.00 66 1012.0
20260510073958 38 77 0.0 0.0 0.00 0.00 0.00 65 1011.8
20260510073458 39 77 0.0 0.0 0.00 0.00 0.00 65 1011.8
20260510072958 39 77 0.0 0.0 0.00 0.00 0.00 65 1011.8
20260510072458 40 77 0.0 0.0 0.00 0.00 0.00 64 1011.8
20260510071958 40 77 0.0 0.0 0.00 0.00 0.00 64 1011.8
20260510071459 40 77 0.0 0.0 0.00 0.00 0.00 64 1011.7
20260510070958 40 77 0.0 0.0 0.00 0.00 0.00 63 1011.6
20260510070458 41 77 0.0 0.0 0.00 0.00 0.00 63 1011.4
20260510070000 41 77 0.0 0.0 0.00 0.00 0.00 62 1011.5
20260510065458 41 77 0.0 0.0 0.00 0.00 0.00 62 1011.5
20260510064958 42 77 0.0 0.0 0.00 0.00 0.00 62 1011.5
20260510064458 42 77 0.0 1.0 0.00 0.00 0.00 62 1011.5
20260510063959 42 77 0.0 1.0 0.00 0.00 0.00 62 1011.4
20260510063458 43 77 0.0 2.0 0.00 0.00 0.00 62 1011.4
20260510062958 43 77 0.0 2.0 0.00 0.00 0.00 62 1011.4
20260510062459 43 88 1.0 3.0 0.00 0.00 0.00 62 1011.3
20260510061958 43 136 1.0 6.0 0.00 0.00 0.00 61 1011.5
20260510061459 43 65 0.0 6.0 0.00 0.00 0.00 60 1011.6
20260510060958 43 137 0.0 2.0 0.00 0.00 0.00 60 1011.4
20260510060458 43 140 1.0 6.0 0.00 0.00 0.00 60 1011.3
20260510060000 44 74 1.0 6.0 0.00 0.00 0.00 60 1011.4
20260510055459 44 245 1.0 6.0 0.00 0.00 0.00 60 1011.4
20260510054958 44 56 1.0 5.0 0.00 0.00 0.00 60 1011.2
20260510054458 44 79 1.0 5.0 0.00 0.00 0.00 60 1011.1
20260510053958 44 355 1.0 4.0 0.00 0.00 0.00 60 1011.1
20260510053500 45 60 2.0 4.0 0.00 0.00 0.00 60 1011.0
20260510052958 45 70 1.0 4.0 0.00 0.00 0.00 61 1010.8
20260510052459 45 72 0.0 2.0 0.00 0.00 0.00 60 1010.7
20260510051958 45 69 0.0 5.0 0.00 0.00 0.00 60 1010.6
20260510051458 46 59 0.0 5.0 0.00 0.00 0.00 59 1010.5
20260510051000 46 74 1.0 5.0 0.00 0.00 0.00 59 1010.4
20260510050459 46 68 1.0 5.0 0.00 0.00 0.00 58 1010.3
20260510050001 47 22 0.0 2.0 0.00 0.00 0.00 58 1010.2
20260510045500 47 47 1.0 3.0 0.00 0.00 0.00 58 1010.0
20260510044959 47 46 0.0 3.0 0.00 0.00 0.00 57 1009.7
20260510044500 47 51 1.0 3.0 0.00 0.00 0.00 57 1009.5
20260510044000 48 30 0.0 6.0 0.00 0.00 0.00 57 1009.4
20260510043500 48 55 2.0 6.0 0.00 0.00 0.00 57 1009.4
20260510042959 48 44 2.0 8.0 0.00 0.00 0.00 56 1009.2
20260510042459 49 28 1.0 8.0 0.00 0.00 0.00 56 1009.1
20260510041959 49 80 2.0 5.0 0.00 0.00 0.00 56 1009.0
20260510041459 49 86 2.0 6.0 0.00 0.00 0.00 57 1009.0
20260510040959 49 32 2.0 5.0 0.00 0.00 0.00 58 1008.9
20260510040459 49 20 1.0 4.0 0.00 0.00 0.00 59 1008.7
20260510040003 49 64 1.0 3.0 0.00 0.00 0.00 59 1008.5
20260510035459 49 180 1.0 3.0 0.00 0.00 0.00 60 1008.4
20260510034958 49 351 1.0 8.0 0.00 0.00 0.00 60 1008.4
20260510034459 49 266 1.0 8.0 0.00 0.00 0.00 61 1008.2
20260510033958 49 321 2.0 6.0 0.00 0.00 0.00 61 1008.1
20260510033459 49 284 2.0 5.0 0.00 0.00 0.00 62 1007.9
20260510032958 48 351 2.0 5.0 0.00 0.00 0.00 62 1007.9
20260510032458 48 323 1.0 5.0 0.00 0.00 0.00 62 1007.8
20260510031958 49 323 1.0 2.0 0.00 0.00 0.00 62 1007.9
20260510031458 49 295 1.0 2.0 0.00 0.00 0.00 62 1007.8
20260510030958 49 282 0.0 3.0 0.00 0.00 0.00 61 1007.8
20260510030458 49 300 0.0 3.0 0.00 0.00 0.00 61 1007.7
20260510030002 50 299 0.0 1.0 0.00 0.00 0.00 61 1007.7
20260510025459 50 282 0.0 2.0 0.00 0.00 0.00 60 1007.6
20260510024959 50 282 0.0 2.0 0.00 0.00 0.00 60 1007.5
20260510024459 51 301 0.0 2.0 0.00 0.00 0.00 60 1007.4
20260510024000 51 305 0.0 1.0 0.00 0.00 0.00 59 1007.4
20260510023459 51 305 0.0 3.0 0.00 0.00 0.00 58 1007.2
20260510022959 52 305 0.0 3.0 0.00 0.00 0.00 58 1007.2
20260510022459 52 276 0.0 1.0 0.00 0.00 0.00 57 1007.1
20260510021959 53 304 0.0 1.0 0.00 0.00 0.00 56 1007.0
20260510021458 53 304 0.0 1.0 0.00 0.00 0.00 55 1006.9
20260510020958 53 304 0.0 2.0 0.00 0.00 0.00 55 1006.8
20260510020459 54 304 0.0 2.0 0.00 0.00 0.00 55 1006.8
20260510012500 56 307 1.0 5.0 0.00 0.00 0.00 53 1006.1
20260510011959 56 305 1.0 10.0 0.00 0.00 0.00 53 1005.9
20260510011458 56 331 2.0 10.0 0.00 0.00 0.00 52 1005.6
20260510011000 56 282 3.0 6.0 0.00 0.00 0.00 52 1005.7
20260510010459 57 306 3.0 6.0 0.00 0.00 0.00 52 1005.5
20260510005959 57 323 3.0 5.0 0.00 0.00 0.00 51 1005.5
20260510005459 58 321 2.0 6.0 0.00 0.00 0.00 50 1005.3
20260510004959 58 334 2.0 6.0 0.00 0.00 0.00 50 1005.2
20260510004459 58 305 2.0 5.0 0.00 0.00 0.00 49 1005.2
20260510003959 58 297 2.0 12.0 0.00 0.00 0.00 49 1005.1
20260510003459 58 261 6.0 12.0 0.00 0.00 0.00 48 1005.0
20260510003000 59 320 4.0 12.0 0.00 0.00 0.00 48 1004.9
20260509235459 60 324 5.0 13.0 0.00 0.00 0.00 48 1004.2
20260509234959 60 271 5.0 13.0 0.00 0.00 0.00 47 1004.1
20260509234459 61 318 5.0 13.0 0.00 0.00 0.00 46 1004.1
20260509233958 61 276 5.0 13.0 0.00 0.00 0.00 45 1003.9
20260509233459 61 276 4.0 17.0 0.00 0.00 0.00 45 1003.8
20260509232959 62 330 5.0 17.0 0.00 0.00 0.00 44 1003.7
20260509232459 62 328 5.0 13.0 0.00 0.00 0.00 43 1003.7
20260509231959 62 255 3.0 15.0 0.00 0.00 0.00 43 1003.7
20260509231459 62 7 6.0 15.0 0.00 0.00 0.00 42 1003.6
20260509230959 62 316 6.0 14.0 0.00 0.00 0.00 41 1003.7
20260509230459 63 271 4.0 12.0 0.00 0.00 0.00 41 1003.5
20260509230001 63 291 6.0 18.0 0.00 0.00 0.00 40 1003.5
20260509225459 63 1 8.0 18.0 0.00 0.00 0.00 38 1003.3
20260509224958 63 297 4.0 14.0 0.00 0.00 0.00 39 1003.1
20260509224459 64 312 5.0 15.0 0.00 0.00 0.00 38 1003.0
20260509223958 64 236 4.0 15.0 0.00 0.00 0.00 39 1003.0
20260509223459 64 295 6.0 16.0 0.00 0.00 0.00 39 1002.9
20260509222959 65 266 8.0 16.0 0.00 0.00 0.00 37 1002.7
20260509222458 65 291 5.0 14.0 0.00 0.00 0.00 40 1002.5
20260509221958 66 259 3.0 14.0 0.00 0.00 0.00 39 1002.5
20260509221458 66 285 4.0 13.0 0.00 0.00 0.00 41 1002.3
20260509220958 66 303 6.0 13.0 0.00 0.00 0.00 40 1002.2
20260509220458 66 276 4.0 16.0 0.00 0.00 0.00 42 1002.2
20260509215959 66 313 4.0 16.0 0.00 0.00 0.00 41 1002.1
20260509215458 66 306 6.0 14.0 0.00 0.00 0.00 41 1002.1
20260509214959 67 314 4.0 11.0 0.00 0.00 0.00 41 1002.0
20260509214459 66 283 4.0 10.0 0.00 0.00 0.00 43 1001.9
20260509213959 67 328 4.0 11.0 0.00 0.00 0.00 41 1001.9
20260509213458 67 214 5.0 11.0 0.00 0.00 0.00 43 1001.7
20260509212959 67 271 4.0 12.0 0.00 0.00 0.00 42 1001.7
20260509212458 67 261 5.0 12.0 0.00 0.00 0.00 41 1001.8
20260509211959 67 295 2.0 12.0 0.00 0.00 0.00 42 1001.7
20260509211500 67 353 3.0 15.0 0.00 0.00 0.00 43 1001.7
20260509210959 67 201 4.0 12.0 0.00 0.00 0.00 43 1001.6
20260509210459 67 276 4.0 12.0 0.00 0.00 0.00 42 1001.7
20260509205958 67 350 5.0 12.0 0.00 0.00 0.00 41 1001.7
20260509205458 67 266 3.0 15.0 0.00 0.00 0.00 42 1001.6
20260509204959 66 247 6.0 15.0 0.00 0.00 0.00 41 1001.6
20260509204459 67 309 5.0 11.0 0.00 0.00 0.00 43 1001.7
20260509203959 67 242 4.0 14.0 0.00 0.00 0.00 42 1001.8
20260509203459 66 228 6.0 14.0 0.00 0.00 0.00 42 1001.7
20260509202959 66 240 4.0 15.0 0.00 0.00 0.00 43 1001.8
20260509202458 67 250 6.0 13.0 0.00 0.00 0.00 43 1001.8
20260509191959 64 284 6.0 13.0 0.00 0.00 0.00 48 1001.7
20260509191459 64 259 6.0 18.0 0.00 0.00 0.00 50 1001.7
20260509190959 64 271 5.0 16.0 0.00 0.00 0.00 51 1001.7
20260509190459 63 340 7.0 16.0 0.00 0.00 0.00 53 1001.7
20260509190000 63 288 8.0 14.0 0.00 0.00 0.00 53 1001.6
20260509185459 63 244 6.0 18.0 0.00 0.00 0.00 53 1001.6
20260509184958 63 188 6.0 15.0 0.00 0.00 0.00 55 1001.5
20260509184500 64 233 6.0 17.0 0.00 0.00 0.00 53 1001.6
20260509183958 64 266 7.0 17.0 0.00 0.00 0.00 53 1001.4
20260509183459 64 240 4.0 13.0 0.00 0.00 0.00 58 1001.2
20260509182958 63 226 6.0 17.0 0.00 0.00 0.00 54 1001.2
20260509182459 62 282 5.0 17.0 0.00 0.00 0.00 55 1001.1
20260509181959 62 198 8.0 23.0 0.00 0.00 0.00 53 1001.2
20260509181458 62 224 6.0 23.0 0.00 0.00 0.00 55 1001.4
20260509180959 61 239 4.0 12.0 0.00 0.00 0.00 57 1001.4
20260509180459 61 244 6.0 16.0 0.00 0.00 0.00 54 1001.3
20260509175957 61 227 4.0 13.0 0.00 0.00 0.00 58 1001.2
20260509175458 60 236 3.0 12.0 0.00 0.00 0.00 59 1001.2
20260509174957 60 213 4.0 12.0 0.00 0.00 0.00 59 1001.2
20260509170957 56 248 3.0 9.0 0.00 0.00 0.00 71 1002.4
20260509170457 56 225 2.0 8.0 0.00 0.00 0.00 70 1002.5
20260509170001 56 244 3.0 8.0 0.00 0.00 0.00 69 1002.7
20260509165459 56 321 1.0 6.0 0.00 0.00 0.00 68 1002.6
20260509164959 56 295 2.0 6.0 0.00 0.00 0.00 66 1002.6
20260509164458 57 251 3.0 11.0 0.00 0.00 0.00 66 1002.6
20260509163959 57 289 4.0 11.0 0.00 0.00 0.00 66 1002.6
20260509163459 57 354 5.0 11.0 0.00 0.00 0.00 66 1002.6
20260509162958 57 297 5.0 10.0 0.00 0.00 0.00 65 1002.6
20260509162459 58 298 2.0 13.0 0.00 0.00 0.00 68 1002.6
20260509161958 57 311 4.0 13.0 0.00 0.00 0.00 67 1002.6
20260509161458 58 356 5.0 13.0 0.00 0.00 0.00 67 1002.5
20260509160958 58 305 5.0 12.0 0.00 0.00 0.00 66 1002.4
20260509160459 58 311 5.0 12.0 0.00 0.00 0.00 67 1002.1
20260509160000 59 240 5.0 12.0 0.00 0.00 0.00 68 1001.9
20260509155458 59 325 3.0 12.0 0.00 0.00 0.00 68 1001.9
20260509154958 60 251 5.0 15.0 0.00 0.00 0.00 66 1001.8
20260509154458 60 331 6.0 15.0 0.00 0.00 0.00 67 1001.7
20260509153959 61 242 6.0 16.0 0.00 0.00 0.00 67 1001.6
20260509153458 62 37 5.0 16.0 0.00 0.00 0.00 66 1001.3